一网星座-0203星 (ONEWEB-0203 )

导读

ONEWEB-0203是英国OneWeb星座的低轨通信卫星,于2021年4月25日发射升空。该卫星运行在距地约1200公里的极地轨道,工作在Ku频段,通过“渐进俯仰”技术规避对地静止轨道卫星干扰。作为OneWeb全球互联网星座组成部分,它旨在为全球偏远地区提供高速宽带接入服务,单颗卫星质量约175-200kg,助力OneWeb构建低轨卫星通信网络,推动全球互联网普及。

基本信息
目录编号:
48235
目录名称:
ONEWEB-0203
国际标识:
2021-031AB
轨道中心:
EARTH
卫星名称:
一网星座-0203星
卫星全名:
一网星座-0203星 (ONEWEB-0203 )
卫星状态:
在轨 (已飞行1969 天)
发射日期:
2021-04-25 UTC
国别 :
英国 (GB)
星等 :
--
该卫星已列入 空间交会检测服务 Space Conjunction Data Service (SCDS) ,当前飞行风险评估等级: 无高风险
轨道信息
数据来源 国际轨道数据 AOE轨道数据
星历时间 2026-09-15T07:50:36+0800
23小时前
查看轨道信息
2026-09-15T23:00:00+0800
8小时前
查看轨道信息
半长轴 7583.931km 7583.93km
偏心率 0.0002032 0.000148
轨道倾角 87.890° 87.893°
近地点辐角 83.327° 68.696°
升交点赤经 271.793° 271.668°
平近点角 276.809° 38.263°
近地点 1204.252km 1204.67km
远地点 1207.336km 1206.916km
周期 109.547分钟 109.547分钟
每日圈数 13.14502 13.145023
详细信息
平衡模式:
三轴稳定
覆盖范围:
全球
运营商:
一网卫星公司
运营商所在国:
英国
制造商(研发单位):
一网卫星公司
制造商所在国:
英国
使用方式:
暂无
卫星简介
OneWeb卫星网络由648颗重约125公斤的微型卫星组成,运行在1200公里的轨道上。 每颗卫星都能够提供至少每秒8千兆位的吞吐量,以使用其高吞吐量的Ku频段有效载荷为家庭和移动平台提供互联网接入。该卫星仍在工作。
2D轨道图
3D轨道图
轨道高度分析图
轨道倾角分析图
轨道综合分析图
查看轨道综合分析图
与全量物体交会距离演化趋势 订阅飞行安全评估服务
与全量物体交会风险概率演化趋势 订阅飞行安全评估服务